[[{"header":{"parameterUnit":"m.s-1","parameterCategory":1,"la1":30.2991,"la2":30.254,"lo1":-89.0895,"lo2":-89.0444,"dy":0.0017,"dx":0.0017,"nx":28,"ny":28,"refTime":"2025-01-04T09:00:00:Z","depth":0,"parameterNumber":2,"parameterNumberName":"U-component_of_WINDS"},"data":[0,0,0,0,0,0,0,0,0,0,0,0,0,0,0,0,0,0,0,0,0,0,0,0,0,0,0,0,0,0,0,0,0,0,0,0,0,0,0,0,0,0,0,0,0,0,0,0,0,0,0,0,0,0,0,0,0,0,3.3315,3.3314,0,3.3298,3.3298,3.3297,3.3253,3.3252,3.3252,3.3251,3.3233,3.3234,3.3234,0,0,0,0,0,0,0,0,0,0,0,0,0,3.331,3.331,3.3315,3.3314,3.3314,3.3298,3.3298,3.3297,3.3254,3.3252,3.3251,3.325,3.3233,3.3234,3.3234,0,0,0,0,0,0,0,0,0,0,0,0,0,3.3304,3.331,3.3315,3.329,3.3288,3.3298,3.3298,3.3297,3.3254,3.3252,3.3251,3.325,3.3233,3.3234,3.3234,3.3266,0,0,3.3236,3.3236,0,0,0,0,0,0,0,0,3.3305,3.3304,3.3294,3.3292,3.3289,3.3276,3.3289,3.3287,3.3254,3.3267,3.3251,3.3249,3.3249,3.3248,3.3248,3.3265,3.3265,3.3236,3.3237,3.3237,3.3237,0,0,0,0,0,0,0,3.3305,3.3305,3.3308,3.3294,3.3291,3.3281,3.3278,3.3289,3.3266,3.3266,3.3262,3.3261,3.3247,3.3247,3.3247,3.3264,3.3236,3.3237,3.3237,3.3237,3.3308,3.3309,0,0,0,0,0,0,3.3309,3.3305,3.3308,3.3307,3.3294,3.3282,3.3279,3.3282,3.3266,3.3262,3.3262,3.3259,3.3247,3.3247,3.3246,3.3282,3.3237,3.3237,3.3238,3.3306,3.3308,3.331,0,0,0,0,0,0,3.3309,3.3309,3.3309,3.3306,3.3305,3.3283,3.3287,3.3282,3.3282,3.3263,3.3259,3.3267,3.3246,3.3246,3.3262,3.3281,3.3238,3.3238,3.3305,3.3307,3.3309,3.3355,0,0,0,0,0,0,3.3309,3.331,3.3321,3.3306,3.3305,3.3324,3.3288,3.3283,3.3284,3.3279,3.3266,3.3262,3.3245,3.3261,3.3262,3.3281,3.3239,3.3303,3.3306,3.3308,3.3352,3.3358,3.3364,0,0,0,0,0,3.3309,3.3335,3.3322,3.3323,3.3319,3.3326,3.3325,3.3304,3.3285,3.3297,3.3285,3.3263,3.328,3.3263,3.3264,3.3284,3.3301,3.3305,3.3308,3.3349,3.3357,3.3364,0,0,0,0,0,0,3.3352,3.3332,3.3318,3.334,3.3335,3.3318,3.3332,3.3314,3.3314,3.331,3.3284,3.3282,3.3301,3.3294,3.3277,3.3314,3.3287,3.3291,3.3317,3.3325,3.3332,3.3332,3.3239,0,0,0,0,0,3.3364,3.3371,3.3354,3.3374,3.3373,3.3353,3.3355,3.334,3.3334,3.3331,3.332,3.3315,3.3319,3.3322,3.3325,3.3351,3.3348,3.3365,3.3372,3.3377,3.338,3.3394,3.3401,3.3321,3.3321,3.3321,0,0,3.3389,3.3379,3.3385,3.3383,3.3377,3.3385,3.3351,3.3361,3.3366,3.3333,3.3347,3.3339,3.3332,3.3353,3.3362,3.3348,3.3402,3.3382,3.3386,3.3386,3.3398,3.3405,3.3412,3.3323,3.3323,3.3323,0,0,3.3438,3.3431,3.3448,3.3443,3.3436,3.3423,3.3427,3.3414,3.3407,3.3421,3.3396,3.3403,3.3411,3.3406,3.3405,3.3455,3.3435,3.3457,3.349,3.3503,3.351,3.3515,3.3532,3.3539,3.3461,3.3461,3.3461,0,3.3469,3.348,3.3459,3.347,3.347,3.3441,3.3457,3.3454,3.3448,3.3449,3.3433,3.3443,3.3436,3.3456,3.3468,3.3469,3.3473,3.3457,3.3511,3.3516,3.352,3.3536,3.3543,3.3463,3.3463,3.3463,3.3463,0,3.3519,3.3527,3.3541,3.3536,3.3538,3.3552,3.3533,3.3538,3.3524,3.3513,3.3528,3.3519,3.352,3.3524,3.3509,3.3542,3.3534,3.3515,3.3487,3.3531,3.3545,3.3552,3.3467,3.3466,3.3465,3.3465,0,0,3.3591,3.3576,3.3581,3.3579,3.3569,3.3575,3.3589,3.359,3.3594,3.3592,3.3602,3.361,3.3593,3.3592,3.3577,3.3589,3.3629,3.3569,3.3569,3.3579,3.3664,3.3677,3.3684,3.3617,3.3618,3.3619,3.3664,0,3.3636,3.3657,3.364,3.3664,3.3671,3.3645,3.3657,3.3653,3.3644,3.3649,3.3639,3.3645,3.3622,3.3621,3.3633,3.3622,3.3645,3.3618,3.3625,3.3626,3.3626,3.3692,3.3705,3.3748,3.367,3.3671,3.3672,0,3.369,3.369,3.3716,3.3706,3.3708,3.3719,3.3719,3.3724,3.372,3.3712,3.3712,3.3695,3.3708,3.3682,3.3699,3.3682,3.3684,3.3679,3.3681,3.3679,3.365,3.369,3.3762,3.3768,3.368,3.368,3.3679,0,3.3738,3.3746,3.3762,3.3761,3.375,3.3758,3.3754,3.3748,3.375,3.3751,3.3752,3.3754,3.3755,3.3757,3.3741,3.3724,3.376,3.3733,3.3754,3.3754,3.376,3.376,3.3832,3.3765,3.3765,3.3765,3.3765,0,3.3789,3.3805,3.3784,3.3793,3.3811,3.3792,3.3811,3.3804,3.3799,3.3807,3.3786,3.3794,3.3773,3.3779,3.3767,3.3783,3.3784,3.3778,3.3774,3.3779,3.3779,3.3778,3.3774,3.3767,3.3766,3.3766,3.3766,0,3.3845,3.3831,3.3847,3.3836,3.3834,3.3848,3.3838,3.3847,3.3838,3.3849,3.385,3.3835,3.3841,3.3826,3.383,3.3822,3.3845,3.3837,3.3846,3.3843,3.3864,3.3862,3.3936,3.3945,3.3875,3.3875,3.3876,0,3.3877,3.3889,3.388,3.3884,3.3881,3.3888,3.3891,3.3873,3.3877,3.3873,3.3883,3.3888,3.389,3.3902,3.3891,3.3895,3.3886,3.3912,3.3886,3.389,3.3884,3.3883,3.3884,3.3916,3.3917,3.3918,3.3918,0,3.3935,3.3928,3.3932,3.3935,3.3938,3.3939,3.3939,3.3944,3.3925,3.393,3.3937,3.3939,3.3944,3.3949,3.3951,3.3946,3.3929,3.3927,3.3932,3.3935,3.394,3.3936,3.3859,3.3925,3.3924,3.3924,3.3923,3.3923,3.3978,3.3988,3.3983,3.3989,3.3988,3.3988,3.3996,3.3988,3.3994,3.3996,3.3986,3.3995,3.3992,3.3992,3.399,3.3997,3.3985,3.3992,3.3993,3.3995,3.3998,3.3941,3.3997,3.3997,3.3997,3.3997,3.3996,0,3.4033,3.403,3.4036,3.4036,3.4041,3.4027,3.4026,3.4031,3.4039,3.4037,3.4041,3.4049,3.4055,3.4046,3.4049,3.4057,3.4049,3.4058,3.4056,3.4056,3.4009,3.4004,3.4064,3.4064,3.4064,3.4064,3.4064,3.4064,3.4063,3.4078,3.4071,3.4086,3.4083,3.4092,3.4093,3.4093,3.4092,3.4102,3.4107,3.4101,3.4097,3.41,3.4105,3.4102,3.4104,3.4116,3.411,3.4066,3.4059,3.4052,3.4047,3.4117,3.4117,3.4156,3.4156,3.4157]},{"header":{"parameterUnit":"m.s-1","parameterCategory":1,"la1":30.2991,"la2":30.254,"lo1":-89.0895,"lo2":-89.0444,"dy":0.0017,"dx":0.0017,"nx":28,"ny":28,"refTime":"2025-01-04T09:00:00:Z","depth":0,"parameterNumber":3,"parameterNumberName":"V-component_of_WINDS"},"data":[0,0,0,0,0,0,0,0,0,0,0,0,0,0,0,0,0,0,0,0,0,0,0,0,0,0,0,0,0,0,0,0,0,0,0,0,0,0,0,0,0,0,0,0,0,0,0,0,0,0,0,0,0,0,0,0,0,0,7.5844,7.5843,0,7.5797,7.5796,7.5796,7.5734,7.5733,7.5732,7.5731,7.5682,7.5681,7.5681,0,0,0,0,0,0,0,0,0,0,0,0,0,7.5881,7.588,7.5844,7.5843,7.5843,7.5797,7.5796,7.5796,7.5734,7.5733,7.5732,7.5731,7.5682,7.5681,7.5681,0,0,0,0,0,0,0,0,0,0,0,0,0,7.5852,7.588,7.5844,7.5806,7.5803,7.5797,7.5796,7.5796,7.5735,7.5733,7.5732,7.573,7.5682,7.5682,7.5681,7.5708,0,0,7.5679,7.5679,0,0,0,0,0,0,0,0,7.5854,7.5851,7.5813,7.5809,7.5805,7.577,7.5791,7.5766,7.5735,7.576,7.5731,7.5729,7.5712,7.5709,7.5704,7.5705,7.5703,7.5679,7.5679,7.5679,7.5678,0,0,0,0,0,0,0,7.5856,7.5853,7.5825,7.5812,7.5807,7.5792,7.5787,7.5786,7.5745,7.5758,7.5754,7.5749,7.571,7.5704,7.5702,7.5703,7.5679,7.5679,7.5678,7.5678,7.5728,7.5729,0,0,0,0,0,0,7.5864,7.5855,7.5827,7.5824,7.5826,7.5793,7.5787,7.5783,7.5745,7.5738,7.575,7.5746,7.5706,7.5703,7.57,7.5731,7.5679,7.5678,7.5678,7.5726,7.5728,7.573,0,0,0,0,0,0,7.5865,7.5862,7.5828,7.5838,7.5833,7.5794,7.579,7.5783,7.5777,7.5739,7.5732,7.5752,7.5705,7.5701,7.5707,7.5728,7.5678,7.5677,7.5724,7.5727,7.5729,7.5791,0,0,0,0,0,0,7.5866,7.5863,7.5872,7.5839,7.5832,7.5836,7.5791,7.5783,7.5776,7.5771,7.5739,7.5732,7.5703,7.5708,7.5707,7.5726,7.5677,7.5722,7.5725,7.5728,7.5787,7.5796,7.5803,0,0,0,0,0,7.5868,7.589,7.5872,7.5869,7.5843,7.5837,7.5834,7.58,7.5778,7.5788,7.5764,7.5733,7.5727,7.571,7.5707,7.5727,7.5721,7.5724,7.5728,7.5784,7.5794,7.5803,0,0,0,0,0,0,7.5924,7.5885,7.5865,7.5877,7.5862,7.5827,7.5837,7.5812,7.5801,7.5796,7.5755,7.5748,7.576,7.5744,7.5726,7.5753,7.5719,7.5723,7.5762,7.5772,7.5779,7.5783,7.5676,0,0,0,0,0,7.5939,7.5938,7.5903,7.5917,7.5911,7.5876,7.5872,7.5848,7.583,7.5822,7.5799,7.5782,7.5777,7.5773,7.5766,7.5786,7.5779,7.5798,7.5806,7.5813,7.5816,7.5827,7.5836,7.5742,7.5742,7.5742,0,0,7.5968,7.5946,7.5947,7.5928,7.5913,7.5913,7.587,7.5871,7.5871,7.5822,7.5827,7.581,7.5789,7.5803,7.5808,7.579,7.5841,7.5817,7.5823,7.5822,7.5832,7.5841,7.5849,7.5745,7.5744,7.5744,0,0,7.602,7.6003,7.6014,7.6001,7.598,7.5957,7.5961,7.5931,7.5918,7.5923,7.5887,7.5887,7.5877,7.5865,7.5857,7.591,7.5882,7.5909,7.5949,7.5961,7.5968,7.5975,7.5995,7.6002,7.5912,7.5913,7.5913,0,7.6058,7.6057,7.6023,7.6028,7.6021,7.5979,7.5991,7.598,7.5957,7.5954,7.5935,7.5924,7.5907,7.5918,7.5932,7.5927,7.593,7.5911,7.597,7.5976,7.5981,7.6,7.6008,7.5916,7.5916,7.5915,7.5915,0,7.6106,7.6106,7.6118,7.6098,7.6094,7.6102,7.607,7.6069,7.6048,7.6028,7.6035,7.6013,7.6002,7.6003,7.5981,7.6013,7.6003,7.5978,7.5943,7.5994,7.6011,7.6018,7.5921,7.592,7.5919,7.5918,0,0,7.6189,7.6154,7.6159,7.6151,7.6127,7.6126,7.6134,7.6124,7.6125,7.6112,7.6118,7.6114,7.6091,7.6083,7.6059,7.607,7.6116,7.6044,7.6043,7.6058,7.6151,7.617,7.6178,7.6098,7.6099,7.61,7.6153,0,7.6237,7.6247,7.6219,7.6237,7.6238,7.6201,7.6208,7.6194,7.6177,7.6175,7.6156,7.6154,7.6124,7.612,7.6129,7.6108,7.6134,7.6104,7.6103,7.6103,7.6109,7.6187,7.6206,7.6257,7.6159,7.6161,7.6161,0,7.6292,7.6285,7.6303,7.6281,7.628,7.6287,7.6277,7.6277,7.6262,7.6248,7.6242,7.6215,7.6222,7.6191,7.6201,7.6182,7.6181,7.6171,7.6172,7.617,7.6135,7.6187,7.6272,7.628,7.6171,7.617,7.617,0,7.6352,7.6346,7.6357,7.6352,7.6325,7.6332,7.6321,7.6305,7.6302,7.6294,7.6292,7.6285,7.6281,7.6277,7.6251,7.623,7.6265,7.623,7.6255,7.6255,7.6262,7.6261,7.6348,7.6262,7.6262,7.6262,7.6262,0,7.6408,7.6421,7.6384,7.6391,7.6405,7.6374,7.6389,7.6375,7.6362,7.6366,7.6333,7.6338,7.6303,7.6304,7.6283,7.6296,7.6294,7.6284,7.6279,7.6287,7.6288,7.6284,7.628,7.6264,7.6264,7.6263,7.6263,0,7.6476,7.6451,7.6461,7.6437,7.6432,7.6444,7.6423,7.6429,7.6412,7.6418,7.6417,7.639,7.639,7.6364,7.6358,7.6344,7.6366,7.6354,7.6371,7.6367,7.6393,7.6391,7.6479,7.6489,7.6398,7.6399,7.64,0,7.6512,7.6521,7.65,7.6501,7.6492,7.6494,7.6492,7.6463,7.6462,7.6449,7.6457,7.6455,7.6451,7.6454,7.6433,7.643,7.6417,7.6449,7.6416,7.6425,7.6418,7.6417,7.6419,7.6455,7.6456,7.6457,7.6457,0,7.658,7.6568,7.6566,7.6562,7.6561,7.6556,7.6548,7.6551,7.652,7.6521,7.6522,7.6519,7.6516,7.6514,7.6508,7.6498,7.6473,7.6469,7.6474,7.6482,7.6491,7.6487,7.6389,7.6466,7.6465,7.6464,7.6464,7.6464,7.6632,7.664,7.6627,7.6627,7.662,7.6615,7.662,7.6604,7.6605,7.6599,7.6583,7.6587,7.6575,7.6564,7.6557,7.656,7.6545,7.6552,7.6554,7.6556,7.6562,7.6493,7.6559,7.6559,7.6559,7.6558,7.6558,0,7.6699,7.6689,7.669,7.6682,7.6683,7.6662,7.6654,7.6656,7.666,7.6652,7.665,7.6653,7.6653,7.6634,7.6632,7.6639,7.6628,7.6639,7.6638,7.6636,7.6575,7.6571,7.6648,7.6648,7.6648,7.6648,7.6648,7.6648,7.6733,7.6746,7.6734,7.6743,7.6734,7.6738,7.6736,7.6732,7.6725,7.6729,7.673,7.6718,7.6706,7.6704,7.6704,7.6698,7.6699,7.6715,7.6706,7.6649,7.664,7.6632,7.6627,7.6715,7.6715,7.6766,7.6767,7.6767]}]]